Nome, AK

2:29 AM AKDT on June 23, 2017 (GMT -0800)
Nome

Weather History for PAOM - July, 2012

Change the Weather History Date:

Wednesday, July 25, 2012

  Actual Average Record
Temperature  
Mean Temperature 51 °F 52 °F  
Max Temperature 52 °F 58 °F 76 °F (1966)
Min Temperature 50 °F 46 °F 32 °F (1931)
Degree Days  
Heating Degree Days 14 13  
Month to date heating degree days 319 322  
Since 1 June heating degree days 817 838  
Since 1 July heating degree days 319 322  
Cooling Degree Days 0    
Month to date cooling degree days 0  
Year to date cooling degree days 0  
Since 1 June cooling degree days 0  
Moisture  
Dew Point 50 °F    
Average Humidity 0    
Maximum Humidity 0    
Minimum Humidity 0    
Precipitation  
Precipitation 1.38 in 0.08 in 1.38 in (2012)
Month to date precipitation 3.34 1.56  
Year to date precipitation 6.40 6.68  
Snow  
Snow 0.00 in 0.00 in 0.00 in (2016)
Month to date snowfall 0.0 0.0  
Since 1 June snowfall 0.0 0.3  
Since 1 July snowfall 0.0 0.0  
Snow Depth 0.00 in    
Sea Level Pressure  
Sea Level Pressure 29.83 in    
Wind  
Wind Speed 17 mph (SSE)    
Max Wind Speed 26 mph    
Max Gust Speed 32 mph    
Visibility 3 miles    
Events Rain    
T = Trace of Precipitation, MM = Missing Value Source: NWS Daily Summary

Daily Weather History Graph

Daily Weather History Graph

Search for Another Location

Airport or City:

Trip Planner

Search our weather history database for the weather conditions in past years. The results will help you decide how hot, cold, wet, or windy it might be!

Date:

Astronomy

Jul. 25, 2012 Rise Set
Actual Time 5:44 AM AKDT 12:29 AM AKDT
Civil Twilight 3:40 AM AKDT 2:38 AM AKDT
Nautical Twilight Sun does not set Sun does not set
Astronomical Twilight Sun does not set Sun does not set
Moon 4:34 PM AKDT (7/25) 12:18 AM AKDT (7/25)
Length of Visible Light 22h 57m
Length of Day
18h 45m
Waxing Crescent, 44% of the Moon is Illuminated
Jul 25
Waxing Crescent
Jul 26
First Quarter
Aug 1
Full
Aug 9
Last Quarter
Aug 17
New

Hourly Weather History & Observations

Time (AKDT) Temp. Dew Point Humidity Pressure Visibility Wind Dir Wind Speed Gust Speed Precip Events Conditions
12:28 AM 50.0 °F 48.2 °F 94% 29.94 in 2.0 mi SSE 13.8 mph - 0.07 in Rain Rain
12:53 AM 50.0 °F 48.9 °F 96% 29.94 in 2.0 mi South 18.4 mph 24.2 mph 0.13 in Rain Rain
1:53 AM 50.0 °F 48.9 °F 96% 29.94 in 2.0 mi SSE 15.0 mph - 0.19 in Rain Light Rain
2:53 AM 50.0 °F 48.9 °F 96% 29.93 in 3.0 mi South 18.4 mph 23.0 mph 0.17 in Rain Rain
3:25 AM 50.0 °F 48.2 °F 94% 29.93 in 2.0 mi South 15.0 mph - 0.05 in Rain Light Rain
3:53 AM 50.0 °F 48.9 °F 96% 29.94 in 2.0 mi SSE 15.0 mph 23.0 mph 0.09 in Rain Light Rain
4:24 AM 50.0 °F 48.2 °F 94% 29.93 in 10.0 mi South 18.4 mph 23.0 mph 0.02 in Rain Light Rain
4:53 AM 51.1 °F 48.9 °F 92% 29.92 in 10.0 mi SSE 12.7 mph - 0.03 in   Overcast
5:53 AM 51.1 °F 50.0 °F 96% 29.90 in 10.0 mi SSE 18.4 mph - 0.00 in   Overcast
6:53 AM 50.0 °F 48.9 °F 96% 29.89 in 3.0 mi SSE 20.7 mph - 0.01 in Rain Light Rain
7:13 AM 50.0 °F 48.2 °F 94% 29.89 in 2.0 mi SE 19.6 mph - 0.01 in Rain Light Rain
7:53 AM 50.0 °F 50.0 °F 100% 29.89 in 3.0 mi SSE 18.4 mph 28.8 mph 0.07 in Rain Light Rain
8:09 AM 51.8 °F 48.2 °F 88% 29.88 in 1.8 mi SE 24.2 mph 28.8 mph 0.01 in Rain Rain
8:21 AM 51.8 °F 48.2 °F 88% 29.88 in 2.0 mi SE 18.4 mph 31.1 mph 0.02 in Rain Rain
8:32 AM 51.8 °F 50.0 °F 94% 29.88 in 1.5 mi SE 20.7 mph 28.8 mph 0.04 in Rain Rain
8:51 AM 51.8 °F 50.0 °F 94% 29.87 in 2.5 mi SE 18.4 mph 28.8 mph 0.07 in Rain Light Rain
8:53 AM 51.1 °F 50.0 °F 96% 29.87 in 2.5 mi SE 21.9 mph 28.8 mph 0.07 in Rain Rain
9:53 AM 51.1 °F 50.0 °F 96% 29.86 in 2.0 mi SE 20.7 mph 27.6 mph 0.12 in Rain Rain
10:53 AM 50.0 °F 48.9 °F 96% 29.84 in 2.0 mi SE 18.4 mph 26.5 mph 0.15 in Rain Rain
11:53 AM 51.1 °F 50.0 °F 96% 29.83 in 2.0 mi SE 24.2 mph 29.9 mph 0.12 in Rain Rain
12:53 PM 51.1 °F 50.0 °F 96% 29.81 in 2.0 mi SE 20.7 mph 29.9 mph 0.07 in Rain Light Rain
1:53 PM 51.1 °F 51.1 °F 100% 29.78 in 2.0 mi SE 21.9 mph 29.9 mph 0.03 in Rain Light Rain
2:53 PM 51.1 °F 51.1 °F 100% 29.79 in 3.0 mi SSE 18.4 mph - 0.02 in   Overcast
3:25 PM 51.8 °F 50.0 °F 94% 29.78 in 1.5 mi SSE 20.7 mph 25.3 mph 0.04 in   Overcast
3:53 PM 51.1 °F 50.0 °F 96% 29.78 in 3.0 mi SSE 20.7 mph 27.6 mph 0.05 in Rain Light Rain
4:31 PM 51.8 °F 50.0 °F 94% 29.77 in 2.0 mi SSE 16.1 mph - 0.01 in Rain Light Rain
4:53 PM 51.1 °F 51.1 °F 100% 29.77 in 1.5 mi SSE 16.1 mph - 0.01 in Rain Light Rain
5:53 PM 51.1 °F 51.1 °F 100% 29.77 in 1.0 mi SSE 13.8 mph - 0.03 in Rain Light Rain
6:53 PM 51.1 °F 51.1 °F 100% 29.76 in 1.5 mi SSE 11.5 mph - 0.04 in Rain Light Rain
7:53 PM 52.0 °F 51.1 °F 97% 29.75 in 1.0 mi SSE 15.0 mph 18.4 mph 0.01 in Rain Light Rain
8:53 PM 52.0 °F 52.0 °F 100% 29.74 in 2.0 mi SE 15.0 mph - 0.03 in Rain Light Rain
9:53 PM 52.0 °F 51.1 °F 97% 29.73 in 3.0 mi SE 13.8 mph - 0.05 in Rain Light Rain
10:19 PM 51.8 °F 51.8 °F 100% 29.73 in 2.0 mi SSE 15.0 mph - 0.01 in Rain Light Rain
10:53 PM 52.0 °F 51.1 °F 97% 29.73 in 1.8 mi SSE 15.0 mph - 0.01 in Rain Light Rain
11:10 PM 51.8 °F 51.8 °F 100% 29.73 in 1.0 mi SSE 13.8 mph - 0.01 in Rain Light Rain
11:24 PM 51.8 °F 51.8 °F 100% 29.73 in 1.0 mi SSE 16.1 mph - 0.02 in Rain Light Rain
11:31 PM 51.8 °F 51.8 °F 100% 29.73 in 0.8 mi SSE 16.1 mph - 0.02 in Rain Light Rain
11:40 PM 51.8 °F 51.8 °F 100% 29.73 in 1.2 mi SSE 16.1 mph - 0.02 in Rain Light Rain
11:47 PM 51.8 °F 51.8 °F 100% 29.72 in 3.0 mi SSE 17.3 mph - 0.02 in   Overcast
11:53 PM 51.1 °F 51.1 °F 100% 29.73 in 2.5 mi SSE 16.1 mph - 0.02 in Rain Light Rain